TimeCST,TemperatureF,Dew PointF,Humidity,Sea Level PressureIn,VisibilityMPH,Wind Direction,Wind SpeedMPH,Gust SpeedMPH,PrecipitationIn,Events,Conditions,WindDirDegrees,DateUTC
12:15 AM,35.6,35.6,100,30.25,5.0,SW,8.1,-,N/A,,Mostly Cloudy,220,2013-01-06 06:15:00
12:35 AM,35.6,33.8,93,30.24,4.0,SW,8.1,-,N/A,,Clear,220,2013-01-06 06:35:00
1:35 AM,35.6,35.6,100,30.23,5.0,SW,9.2,-,N/A,,Scattered Clouds,220,2013-01-06 07:35:00
1:55 AM,35.6,33.8,93,30.23,5.0,SW,9.2,-,N/A,,Clear,230,2013-01-06 07:55:00
2:15 AM,35.6,33.8,93,30.22,4.0,SW,9.2,-,N/A,,Clear,220,2013-01-06 08:15:00
2:55 AM,33.8,33.8,100,30.22,3.0,SW,8.1,-,N/A,,Clear,220,2013-01-06 08:55:00
3:35 AM,33.8,33.8,100,30.21,4.0,SW,8.1,-,N/A,,Clear,230,2013-01-06 09:35:00
3:55 AM,32.0,30.2,93,30.22,2.5,SSW,9.2,-,N/A,,Clear,210,2013-01-06 09:55:00
4:15 AM,30.2,30.2,100,30.21,2.5,SSW,8.1,-,N/A,,Clear,210,2013-01-06 10:15:00
4:35 AM,30.2,30.2,100,30.21,3.0,SSW,8.1,-,N/A,,Clear,210,2013-01-06 10:35:00
5:15 AM,30.2,30.2,100,30.21,3.0,SW,5.8,-,N/A,,Clear,220,2013-01-06 11:15:00
5:35 AM,30.2,30.2,100,30.21,3.0,SW,6.9,-,N/A,,Clear,230,2013-01-06 11:35:00
5:55 AM,33.8,32.0,93,30.22,7.0,WSW,8.1,-,N/A,,Clear,250,2013-01-06 11:55:00
6:35 AM,33.8,32.0,93,30.23,10.0,WSW,8.1,-,N/A,,Clear,240,2013-01-06 12:35:00
6:55 AM,33.8,30.2,87,30.24,10.0,SW,8.1,-,N/A,,Clear,230,2013-01-06 12:55:00
7:15 AM,33.8,30.2,87,30.25,10.0,WSW,8.1,-,N/A,,Clear,240,2013-01-06 13:15:00
7:35 AM,33.8,30.2,87,30.25,10.0,WSW,6.9,-,N/A,,Clear,250,2013-01-06 13:35:00
7:55 AM,33.8,30.2,87,30.26,10.0,WSW,8.1,-,N/A,,Clear,250,2013-01-06 13:55:00
8:36 AM,35.6,32.0,87,30.28,10.0,WSW,5.8,-,N/A,,Clear,250,2013-01-06 14:36:00
8:55 AM,37.4,33.8,87,30.28,10.0,West,9.2,-,N/A,,Clear,280,2013-01-06 14:55:00
9:15 AM,37.4,33.8,87,30.28,10.0,West,8.1,-,N/A,,Clear,270,2013-01-06 15:15:00
9:55 AM,39.2,32.0,75,30.28,10.0,West,8.1,-,N/A,,Clear,280,2013-01-06 15:55:00
10:15 AM,39.2,32.0,75,30.28,10.0,West,8.1,-,N/A,,Clear,280,2013-01-06 16:15:00
10:55 AM,42.8,30.2,61,30.28,10.0,WNW,12.7,17.3,N/A,,Clear,300,2013-01-06 16:55:00
11:15 AM,42.8,30.2,61,30.28,10.0,WNW,13.8,-,N/A,,Clear,290,2013-01-06 17:15:00
11:35 AM,44.6,30.2,57,30.28,10.0,WNW,9.2,-,N/A,,Clear,290,2013-01-06 17:35:00
11:55 AM,44.6,30.2,57,30.28,10.0,NW,12.7,-,N/A,,Clear,310,2013-01-06 17:55:00
12:15 PM,44.6,30.2,57,30.28,10.0,NW,11.5,-,N/A,,Clear,310,2013-01-06 18:15:00
12:35 PM,44.6,28.4,53,30.28,10.0,NW,10.4,-,N/A,,Clear,320,2013-01-06 18:35:00
12:55 PM,44.6,28.4,53,30.28,10.0,NNW,9.2,-,N/A,,Clear,330,2013-01-06 18:55:00
1:15 PM,46.4,30.2,53,30.28,10.0,NW,11.5,-,N/A,,Clear,310,2013-01-06 19:15:00
1:55 PM,46.4,28.4,50,30.28,10.0,NNW,15.0,18.4,N/A,,Clear,340,2013-01-06 19:55:00
2:35 PM,46.4,28.4,50,30.30,10.0,NNW,15.0,-,N/A,,Clear,340,2013-01-06 20:35:00
2:55 PM,46.4,28.4,50,30.31,10.0,NNW,12.7,-,N/A,,Clear,330,2013-01-06 20:55:00
3:15 PM,46.4,28.4,50,30.32,10.0,NNW,11.5,-,N/A,,Clear,330,2013-01-06 21:15:00
3:35 PM,46.4,28.4,50,30.33,10.0,NW,11.5,-,N/A,,Clear,310,2013-01-06 21:35:00
3:55 PM,46.4,30.2,53,30.33,10.0,NW,11.5,-,N/A,,Clear,320,2013-01-06 21:55:00
4:35 PM,44.6,30.2,57,30.34,10.0,NNW,6.9,-,N/A,,Clear,330,2013-01-06 22:35:00
5:15 PM,39.2,28.4,65,30.35,10.0,North,5.8,-,N/A,,Clear,350,2013-01-06 23:15:00
5:35 PM,39.2,28.4,65,30.35,10.0,North,6.9,-,N/A,,Clear,10,2013-01-06 23:35:00
5:55 PM,39.2,26.6,61,30.35,10.0,North,4.6,-,N/A,,Clear,350,2013-01-06 23:55:00
6:15 PM,37.4,28.4,70,30.36,10.0,North,5.8,-,N/A,,Clear,350,2013-01-07 00:15:00
6:35 PM,39.2,26.6,61,30.36,10.0,North,6.9,-,N/A,,Clear,10,2013-01-07 00:35:00
6:55 PM,39.2,24.8,56,30.37,10.0,North,5.8,-,N/A,,Clear,10,2013-01-07 00:55:00
7:35 PM,37.4,26.6,65,30.37,10.0,NNE,4.6,-,N/A,,Clear,20,2013-01-07 01:35:00
7:55 PM,37.4,24.8,60,30.38,10.0,NNE,3.5,-,N/A,,Clear,20,2013-01-07 01:55:00
8:15 PM,35.6,28.4,75,30.38,10.0,NNE,3.5,-,N/A,,Clear,20,2013-01-07 02:15:00
8:55 PM,35.6,24.8,65,30.38,10.0,Calm,Calm,-,N/A,,Clear,0,2013-01-07 02:55:00
9:15 PM,33.8,24.8,70,30.39,10.0,Calm,Calm,-,N/A,,Clear,0,2013-01-07 03:15:00
9:35 PM,33.8,24.8,70,30.40,10.0,Calm,Calm,-,N/A,,Clear,0,2013-01-07 03:35:00
10:15 PM,30.2,26.6,86,30.40,10.0,NNW,4.6,-,N/A,,Clear,340,2013-01-07 04:15:00
10:35 PM,30.2,26.6,86,30.41,10.0,NW,4.6,-,N/A,,Clear,320,2013-01-07 04:35:00
10:55 PM,30.2,26.6,86,30.41,10.0,NW,5.8,-,N/A,,Clear,320,2013-01-07 04:55:00
11:35 PM,30.2,26.6,86,30.41,10.0,NNE,3.5,-,N/A,,Clear,30,2013-01-07 05:35:00
11:55 PM,30.2,28.4,93,30.41,10.0,Calm,Calm,-,N/A,,Clear,0,2013-01-07 05:55:00